Tümü
Fisher County Airport (Rotan/Roby, TX) 56F Hava Durumu
There is no TAF data available at 56F or any nearby airports.
There is no METAR data available at 56F. Showing METAR data for KSWW (25 mi G).
Yakın zamandaki SWW METAR geçmişi (56F verisi yok)
| Date | Time (CDT) | Flight Rules | Wind Dir. | Speed | Type | Height AGL (ft) | Visibility | Temp (°C) | Temp (°F) | Dew Point (°C) | Dew Point (°F) | Rel. Humid. | Pressure | Density Altitude | Remarks |
|---|---|---|---|---|---|---|---|---|---|---|---|---|---|---|---|
| 04-Eyl | 14:35 | VFR | Calm | 10 miles | 40° | 104° | 17° | 62° | 26% | 29.96 in Hg | 5.814 ft | ||||
| 04-Eyl | 14:15 | VFR | 250° | 5 kt | 10 miles | 37° | 98° | 17° | 62° | 30% | 29.97 in Hg | 5.444 ft | |||
| 04-Eyl | 13:55 | VFR | 220° | 7 kt | 10 miles | 38° | 100° | 16° | 60° | 28% | 29.98 in Hg | 5.554 ft | |||
| 04-Eyl | 13:35 | VFR | 250° | 5 kt | 10 miles | 38° | 100° | 17° | 62° | 29% | 29.98 in Hg | 5.554 ft | |||
| 04-Eyl | 13:15 | VFR | 200° | 8 kt | 10 miles | 37° | 98° | 17° | 62° | 31% | 29.99 in Hg | 5.424 ft | |||
| 04-Eyl | 12:55 | VFR | 210° | 11 kt | 10 miles | 37° | 98° | 18° | 64° | 33% | 30.00 in Hg | 5.414 ft | |||
| 04-Eyl | 12:15 | VFR | 190° | 8 kt | 10 miles | 35° | 95° | 18° | 64° | 37% | 30.01 in Hg | 5.164 ft | |||
| 04-Eyl | 11:55 | VFR | 220° | 6 kt | 10 miles | 34° | 93° | 18° | 64° | 39% | 30.02 in Hg | 5.034 ft | Wind gusting to 9 KT | ||
| 04-Eyl | 11:35 | VFR | 210° | 10 kt | 10 miles | 34° | 93° | 18° | 64° | 40% | 30.02 in Hg | 5.034 ft | Wind gusting to 14 KT | ||
| 04-Eyl | 11:15 | VFR | 190° | 11 kt | 10 miles | 33° | 91° | 19° | 66° | 42% | 30.02 in Hg | 4.914 ft | Wind gusting to 14 KT | ||
| 04-Eyl | 10:55 | VFR | 200° | 8 kt | 10 miles | 33° | 91° | 19° | 66° | 44% | 30.02 in Hg | 4.914 ft | |||
| 04-Eyl | 10:35 | VFR | 220° | 7 kt | 10 miles | 31° | 87° | 19° | 66° | 47% | 30.02 in Hg | 4.674 ft | |||
| 04-Eyl | 10:15 | VFR | 210° | 10 kt | 10 miles | 31° | 87° | 19° | 66° | 49% | 30.02 in Hg | 4.674 ft | |||
| 04-Eyl | 09:55 | VFR | 210° | 10 kt | 10 miles | 31° | 87° | 19° | 66° | 52% | 30.02 in Hg | 4.674 ft | |||
| 04-Eyl | 09:35 | VFR | 200° | 8 kt | 10 miles | 30° | 86° | 19° | 66° | 54% | 30.01 in Hg | 4.564 ft | |||
| 04-Eyl | 09:15 | VFR | 180° | 11 kt | 10 miles | 29° | 84° | 19° | 66° | 56% | 30.01 in Hg | 4.444 ft | Wind gusting to 15 KT | ||
| 04-Eyl | 08:55 | VFR | 200° | 11 kt | 10 miles | 29° | 84° | 19° | 66° | 56% | 30.00 in Hg | 4.454 ft | Wind gusting to 16 KT | ||
| 04-Eyl | 08:35 | VFR | 190° | 8 kt | 10 miles | 27° | 80° | 19° | 66° | 59% | 29.99 in Hg | 4.224 ft | |||
| 04-Eyl | 08:15 | VFR | 190° | 9 kt | 10 miles | 26° | 78° | 18° | 64° | 61% | 29.98 in Hg | 4.114 ft | |||
| 04-Eyl | 07:55 | VFR | 190° | 7 kt | 10 miles | 26° | 78° | 18° | 64° | 62% | 29.98 in Hg | 4.114 ft | |||
| 04-Eyl | 07:35 | VFR | 190° | 6 kt | 10 miles | 25° | 77° | 17° | 62° | 60% | 29.97 in Hg | 4.004 ft | |||
| 04-Eyl | 07:15 | VFR | 190° | 7 kt | 10 miles | 26° | 78° | 17° | 62° | 60% | 29.97 in Hg | 4.124 ft | |||
| 04-Eyl | 06:55 | VFR | 200° | 6 kt | 10 miles | 26° | 78° | 17° | 62° | 59% | 29.97 in Hg | 4.124 ft | |||
| 04-Eyl | 06:35 | VFR | 190° | 7 kt | 10 miles | 26° | 78° | 17° | 62° | 58% | 29.97 in Hg | 4.124 ft |
Giriş
| Tarayıcınız desteklenmiyor. tarayıcınızı yükseltin |
